Total_Precipitation_Accumulation
0.32 0.33 0.38 0.42 0.44 0.48 0.60 0.56 0.41 0.35 0.31 0.29 0.27 0.28 0.28 0.32 0.40 0.57 0.75 0.87 0.98 1.02 1.04 1.08 1.12 1.20 1.22 1.13 1.18 1.23 1.33 1.46 1.34 1.07 1.12 1.23 1.09 0.84 0.67 0.59 0.52 0.52 0.50
0.35 0.34 0.37 0.43 0.43 0.42 0.46 0.49 0.42 0.35 0.32 0.28 0.27 0.25 0.21 0.23 0.33 0.49 0.65 0.80 0.95 1.06 1.10 1.13 1.03 1.03 1.14 1.16 1.18 1.21 1.24 1.38 1.32 1.21 1.17 1.26 1.24 1.07 0.88 0.68 0.51 0.43 0.44
0.45 0.43 0.36 0.34 0.33 0.32 0.33 0.35 0.38 0.40 0.42 0.37 0.34 0.31 0.34 0.38 0.45 0.52 0.59 0.72 0.88 0.97 1.01 0.99 0.95 1.00 1.00 1.09 1.14 1.14 1.14 1.15 1.22 1.23 1.22 1.34 1.35 1.19 0.97 0.77 0.58 0.53 0.48
0.41 0.39 0.37 0.35 0.37 0.40 0.39 0.37 0.39 0.41 0.43 0.41 0.39 0.42 0.48 0.52 0.53 0.54 0.57 0.65 0.71 0.77 0.82 0.80 0.79 0.85 0.90 0.96 0.98 1.00 1.04 1.09 1.15 1.15 1.22 1.34 1.37 1.36 1.15 0.91 0.71 0.58 0.54
0.49 0.48 0.42 0.38 0.38 0.41 0.42 0.38 0.37 0.37 0.38 0.47 0.49 0.52 0.55 0.55 0.50 0.54 0.59 0.55 0.62 0.59 0.56 0.59 0.61 0.66 0.72 0.80 0.80 0.84 0.93 0.99 1.04 1.13 1.20 1.35 1.38 1.44 1.29 1.05 0.88 0.74 0.62
0.48 0.55 0.58 0.53 0.47 0.46 0.47 0.44 0.44 0.42 0.46 0.52 0.52 0.55 0.57 0.48 0.47 0.45 0.46 0.43 0.47 0.51 0.51 0.49 0.47 0.51 0.54 0.58 0.62 0.68 0.77 0.86 0.96 1.08 1.17 1.29 1.39 1.38 1.33 1.22 1.09 0.90 0.69
0.54 0.54 0.64 0.71 0.63 0.65 0.67 0.61 0.59 0.59 0.61 0.63 0.65 0.65 0.68 0.69 0.53 0.41 0.34 0.35 0.41 0.47 0.52 0.55 0.41 0.33 0.42 0.50 0.58 0.58 0.59 0.66 0.78 0.94 1.04 1.16 1.34 1.42 1.45 1.34 1.27 1.12 0.87
0.50 0.51 0.63 0.75 0.70 0.72 0.74 0.71 0.74 0.81 0.83 0.85 0.85 0.82 0.82 0.76 0.60 0.43 0.34 0.30 0.36 0.43 0.51 0.56 0.55 0.49 0.49 0.52 0.61 0.63 0.59 0.57 0.62 0.72 0.80 1.00 1.34 1.59 1.61 1.56 1.54 1.43 1.17
0.59 0.65 0.74 0.86 0.90 0.94 0.93 0.95 1.01 1.09 1.12 1.15 1.17 1.13 1.07 1.01 0.78 0.53 0.42 0.38 0.46 0.51 0.56 0.58 0.59 0.56 0.46 0.40 0.50 0.59 0.63 0.62 0.58 0.66 0.74 0.88 1.10 1.44 1.62 1.65 1.68 1.51 1.26
0.77 0.80 0.88 1.05 1.11 1.10 1.10 1.15 1.19 1.27 1.31 1.30 1.22 1.13 1.07 1.05 0.91 0.64 0.54 0.54 0.63 0.68 0.76 0.75 0.66 0.61 0.53 0.41 0.48 0.58 0.59 0.61 0.66 0.68 0.69 0.71 0.83 1.09 1.35 1.38 1.41 1.46 1.23
0.80 0.86 0.94 1.13 1.33 1.31 1.34 1.33 1.32 1.36 1.42 1.44 1.38 1.32 1.23 1.15 1.02 0.70 0.58 0.62 0.71 0.78 0.75 0.76 0.71 0.61 0.48 0.39 0.40 0.49 0.52 0.58 0.74 0.81 0.85 0.88 0.95 1.05 1.18 1.25 1.32 1.34 1.27
0.83 0.89 0.99 1.19 1.27 1.31 1.42 1.45 1.49 1.49 1.45 1.45 1.48 1.40 1.35 1.29 1.08 0.83 0.64 0.65 0.77 0.91 0.91 0.89 0.87 0.75 0.59 0.49 0.41 0.38 0.41 0.47 0.60 0.73 0.80 0.84 0.89 0.93 1.03 1.18 1.34 1.38 1.34
0.84 0.87 0.96 1.05 1.14 1.25 1.32 1.29 1.34 1.42 1.44 1.46 1.46 1.41 1.41 1.46 1.30 0.95 0.77 0.74 0.81 0.96 1.08 1.12 0.99 0.84 0.73 0.62 0.56 0.51 0.47 0.47 0.57 0.65 0.72 0.73 0.79 0.87 1.04 1.25 1.45 1.63 1.57
0.77 0.77 0.85 1.01 1.06 1.13 1.26 1.27 1.34 1.40 1.45 1.53 1.56 1.48 1.45 1.54 1.48 1.18 0.94 0.82 0.78 0.84 0.94 0.98 0.93 0.88 0.81 0.71 0.62 0.54 0.46 0.48 0.55 0.58 0.65 0.74 0.85 1.02 1.11 1.13 1.23 1.42 1.57
0.83 0.78 0.79 0.88 0.98 1.04 1.17 1.27 1.28 1.30 1.25 1.28 1.33 1.31 1.34 1.44 1.38 1.15 0.99 0.90 0.84 0.85 0.91 0.97 0.97 0.98 0.88 0.80 0.72 0.67 0.64 0.64 0.60 0.62 0.71 0.81 0.86 0.95 1.04 1.10 1.16 1.19 1.22
0.92 0.84 0.80 0.80 0.88 0.94 1.03 1.05 0.96 0.93 0.89 0.88 0.91 0.86 0.86 1.03 1.05 0.86 0.74 0.77 0.76 0.73 0.79 0.87 0.94 0.98 0.94 0.86 0.82 0.76 0.76 0.74 0.71 0.74 0.80 0.86 0.89 0.91 0.97 1.11 1.23 1.23 1.13
1.10 0.95 0.82 0.77 0.78 0.82 0.92 1.00 1.03 0.93 0.85 0.78 0.73 0.64 0.61 0.81 0.91 0.79 0.68 0.63 0.59 0.60 0.68 0.76 0.81 0.89 0.94 0.87 0.81 0.76 0.75 0.76 0.82 0.85 0.86 0.89 0.95 0.99 1.04 1.12 1.24 1.30 1.22
1.11 0.99 0.84 0.80 0.79 0.76 0.80 0.89 0.97 1.04 1.01 0.84 0.67 0.57 0.50 0.64 0.77 0.74 0.65 0.56 0.55 0.57 0.63 0.70 0.78 0.83 0.90 0.88 0.81 0.81 0.85 0.90 0.90 0.92 0.93 0.95 1.00 1.05 1.09 1.12 1.16 1.22 1.22
1.00 0.92 0.83 0.80 0.81 0.73 0.69 0.75 0.83 0.91 1.01 0.96 0.78 0.66 0.58 0.66 0.74 0.70 0.60 0.53 0.56 0.57 0.60 0.66 0.74 0.82 0.85 0.84 0.84 0.87 0.89 0.93 0.88 0.90 0.96 1.01 0.99 1.03 1.02 1.06 1.14 1.22 1.26
0.82 0.68 0.66 0.72 0.73 0.70 0.68 0.72 0.81 0.90 0.97 0.96 0.85 0.73 0.62 0.66 0.75 0.74 0.65 0.61 0.60 0.57 0.56 0.63 0.71 0.76 0.81 0.85 0.92 0.95 0.93 0.97 1.00 0.94 0.98 1.05 0.99 0.99 0.98 0.99 1.10 1.16 1.16
0.70 0.57 0.47 0.52 0.63 0.67 0.70 0.76 0.87 0.94 0.97 0.91 0.78 0.64 0.55 0.52 0.63 0.64 0.66 0.68 0.65 0.64 0.64 0.64 0.68 0.73 0.76 0.83 0.91 0.96 0.98 1.01 1.04 0.99 0.98 1.06 1.04 1.04 1.07 1.04 1.05 1.15 1.16
0.66 0.55 0.46 0.47 0.54 0.58 0.68 0.81 0.89 0.90 0.86 0.80 0.72 0.63 0.59 0.56 0.61 0.63 0.68 0.67 0.65 0.64 0.60 0.61 0.65 0.71 0.76 0.80 0.85 0.92 0.95 0.96 0.99 1.02 1.01 1.05 1.08 1.06 1.08 1.06 1.04 1.14 1.23
0.59 0.45 0.37 0.37 0.41 0.44 0.57 0.75 0.81 0.76 0.68 0.67 0.66 0.65 0.65 0.65 0.64 0.65 0.67 0.66 0.64 0.61 0.57 0.60 0.64 0.68 0.75 0.76 0.76 0.82 0.87 0.89 0.88 0.94 1.03 1.05 1.07 1.09 1.11 1.13 1.12 1.14 1.22
0.52 0.39 0.28 0.25 0.30 0.39 0.55 0.72 0.73 0.65 0.61 0.63 0.63 0.65 0.66 0.65 0.64 0.64 0.66 0.67 0.66 0.65 0.62 0.63 0.63 0.61 0.65 0.71 0.70 0.68 0.69 0.67 0.67 0.76 0.87 0.97 1.01 1.10 1.10 1.11 1.14 1.11 1.18
0.49 0.40 0.31 0.26 0.30 0.43 0.61 0.72 0.65 0.58 0.57 0.58 0.56 0.60 0.64 0.66 0.67 0.67 0.66 0.69 0.69 0.71 0.68 0.64 0.62 0.60 0.55 0.56 0.59 0.57 0.54 0.47 0.47 0.56 0.69 0.81 0.87 0.97 1.02 1.03 1.10 1.12 1.13
0.45 0.42 0.36 0.32 0.37 0.49 0.61 0.66 0.60 0.56 0.59 0.57 0.56 0.58 0.63 0.67 0.67 0.64 0.65 0.65 0.65 0.64 0.58 0.54 0.53 0.54 0.53 0.51 0.46 0.41 0.36 0.34 0.36 0.43 0.53 0.66 0.77 0.85 0.92 0.96 1.01 1.08 1.07